Lexington Weather

Lexington, Massachusetts, USA

53°F
10/17/2021 9:23pm 
  • Lexington Conditions: Partly cloudy
  • Temperature: 52.5°F / 11.4°CColder 0.9°F than last hour.
  • Dew Point: 47.1°FDecreased 0.6°Fsince last hour.
  • Relative Humidity: 82%Increased 1.0% since last hour.
  • Wind: Wind from SW SW Calm, 10-min avg: 1 mph, gust: 6 mph
  • Barometer: 29.67 in Steady
  • Visibility: 10 miles
  • Rain Today: 0.35 in
  •   

Regional Weather Roundup
for Boston / Norton, MA

        
000
ASUS41 KBOX 141504
RWRBOX

REGIONAL WEATHER ROUNDUP
NATIONAL WEATHER SERVICE BOSTON/NORTON MA
1100 AM EDT THU OCT 14 2021

NOTE:  "FAIR" INDICATES FEW OR NO CLOUDS BELOW 12,000 FEET WITH NO 
SIGNIFICANT WEATHER AND/OR OBSTRUCTIONS TO VISIBILITY.

MAZALL-141600-
EASTERN MASSACHUSETTS
  
CITY           SKY/WX    TMP DP  RH WIND       PRES   REMARKS
BOSTON         MOSUNNY   74  59  59 N12       29.91R                  
BEVERLY        SUNNY     72  61  68 N10       29.90S                  
LAWRENCE       SUNNY     73  62  68 NE6       29.93S                  
BEDFORD        SUNNY     73  62  68 N7        29.90F                  
BLUE HILL      NOT AVBL                                               
NORWOOD        SUNNY     74  59  59 N9        29.90S                  
MARSHFIELD     SUNNY     68  57  68 N9G18     29.90R                  
PLYMOUTH       SUNNY     71  60  68 N9        29.90S                  
TAUNTON        SUNNY     73  60  63 VRB5      29.89S                  
NEW BEDFORD    SUNNY     72  60  66 N9        29.89S                  
$$

MAZALL-141600-
CAPE COD AND THE ISLANDS
  
CITY           SKY/WX    TMP DP  RH WIND       PRES   REMARKS
FALMOUTH       SUNNY     68  61  77 N8        29.90S                  
HYANNIS        CLOUDY    65  61  87 N7        29.88S                  
CHATHAM        CLOUDY    66  61  84 N5        29.90R                  
PROVINCETOWN   CLOUDY    63  61  93 N6        29.90S                  
NANTUCKET      CLOUDY    70  62  76 NW6       29.88F                  
MARTHAS VNYRD  SUNNY     71  61  70 NW10      29.89S                  
$$
 
MAZALL-141600-
CENTRAL AND WESTERN MASSACHUSETTS
  
CITY           SKY/WX    TMP DP  RH WIND       PRES   REMARKS
WORCESTER      SUNNY     70  59  68 N10       29.93F                  
FITCHBURG      SUNNY     74  57  55 N10G16    29.91F                  
ORANGE         MOSUNNY   70  59  68 N12       29.94F                  
SPRINGFIELD    MOSUNNY   69  58  69 N6        29.92F                  
WESTFIELD      MOSUNNY   73  60  63 NE5       29.93S                  
NORTH ADAMS    CLOUDY    66  58  75 SW3       29.96F                  
PITTSFIELD     CLOUDY    66  59  78 W6        29.96F                  
$$
 
RIZALL-141600-
RHODE ISLAND
  
CITY           SKY/WX    TMP DP  RH WIND       PRES   REMARKS
PROVIDENCE     MOSUNNY   74  61  63 N9        29.90F                  
NEWPORT        SUNNY     68  61  78 N8        29.89F                  
BLOCK ISLAND   SUNNY     70  60  70 VRB5      29.91F                  
SMITHFIELD     SUNNY     72  62  71 NE9       29.91F                  
WESTERLY       SUNNY     73  60  63 N10       29.90F                  
$$
 
CTZALL-141600-
CONNECTICUT
  
CITY           SKY/WX    TMP DP  RH WIND       PRES   REMARKS
BRADLEY INTL   MOSUNNY   71  62  73 VRB5      29.93F                  
HARTFORD       MOSUNNY   70  59  68 CALM      29.93F                  
BRIDGEPORT     SUNNY     75  61  61 NE7       29.93S                  
DANBURY        MOSUNNY   71  60  68 NW6       29.96F                  
GROTON         MOSUNNY   73  61  65 N12       29.90F                  
NEW HAVEN      SUNNY     75  62  64 N12       29.92F                  
CHESTER        FAIR      73  61  64 N10G17    29.93S                  
MERIDEN        SUNNY     73  58  59 N8        29.93F                  
WILLIMANTIC    MOSUNNY   71  60  68 NW9       29.92F                  
OXFORD         MOSUNNY   68  61  78 N12       29.96F                  
$$

MEZ002-015-021-024-NHZ003-005-008-011-012-014-VTZ005-008-141600-
NORTHERN NEW ENGLAND
  
CITY           SKY/WX    TMP DP  RH WIND       PRES   REMARKS
PORTLAND ME    MOSUNNY   71  60  68 N12       29.90F                  
BANGOR ME      MOSUNNY   69  59  70 N7        29.90S                  
CONCORD NH     SUNNY     73  60  63 NW7       29.91F                  
MANCHESTER NH  MOSUNNY   74  58  57 N13       29.89F                  
NASHUA NH      SUNNY     73  64  73 VRB7      29.91F                  
PORTSMOUTH NH  MOSUNNY   71  57  60 NW8       29.92F                  
JAFFREY NH     MOSUNNY   72  60  66 VRB3      29.94F                  
KEENE NH       CLOUDY    62  60  93 CALM      29.94F                  
BURLINGTON VT  CLOUDY    67  61  81 NE3       29.97R                  
MT. WASHINGTON NOT AVBL                                               
$$

NYZ052-076-141600-
EASTERN NEW YORK
  
CITY           SKY/WX    TMP DP  RH WIND       PRES   REMARKS
ALBANY         PTSUNNY   70  62  76 VRB3      29.97S                  
NEW YORK CITY  PTSUNNY   73  58  59 NW8       29.95S                  
$$
 
ANZALL-141600-
MARINE OBSERVATIONS
  
STATION/POSITION TIME  TEMP    WIND        PRES    VSBY  WAVE
                       AIR SEA DIR/SP/G                  HT/PER
                 (UTC) (F)     (DEG/KT/KT) (MB)    (MI)  (FT/S)
BOSTON BUOY      1440      63  340/  8/  8 1013.0R
BUZZARDS BAY     1400          340/  8/ 10 1013.3F
NANTUCKET SOUND  1450   65 67  360/  4/  6 1012.0S         1
MASS BAY-STELLWA 1404   63     360/ 12/ 14 1011.6S  1 7/8  2/11
ISLE OF SHOALS   1400   62     330/ 10/ 10 1012.4R
S OF BLOCK IS    1426      65                N/A           2/ 8
$$

......................KEY.........................
  SKY/WX - SKY CONDITION/PRESENT WEATHER
  TMP    - TEMPERATURE IN FAHRENHEIT
  DWPT   - DEWPOINT IN FAHRENHEIT
  RH     - RELATIVE HUMIDITY IN PERCENT
  WIND   - DIRECTION AND SPEED IN MPH
  PRES   - MEAN SEA LEVEL PRESSURE IN INCHES OF HG
  WCI    - WIND CHILL INDEX
  VSB    - VISIBILITY IN MILES
  HX     - HEAT INDEX
  TC     - TEMPERATURE IN CELSIUS
  VRB    - VARIABLE WIND DIRECTION
  N/A    - NOT AVAILABLE
  
      

Other recent Regional Weather Roundups

Sun Oct 17, 9:04pm

Sun Oct 17, 8:04pm

Sun Oct 17, 7:04pm

Sun Oct 17, 6:04pm

Sun Oct 17, 5:04pm

Sun Oct 17, 4:04pm

Sun Oct 17, 3:04pm

Sun Oct 17, 2:04pm

Sun Oct 17, 1:04pm

Sun Oct 17, 12:04pm

Sun Oct 17, 11:04am

Sun Oct 17, 10:04am

Sun Oct 17, 9:04am

Sun Oct 17, 8:04am

Sun Oct 17, 7:04am

Sun Oct 17, 6:04am

Sun Oct 17, 5:04am

Sun Oct 17, 4:04am

Sun Oct 17, 3:04am

Sun Oct 17, 2:04am

Sun Oct 17, 1:04am

Sun Oct 17, 12:04am

Sat Oct 16, 11:04pm

Sat Oct 16, 10:04pm

Sat Oct 16, 9:04pm

Sat Oct 16, 8:04pm

Sat Oct 16, 7:04pm

Sat Oct 16, 6:04pm

Sat Oct 16, 5:04pm

Sat Oct 16, 4:04pm

Sat Oct 16, 3:04pm

Sat Oct 16, 2:04pm

Sat Oct 16, 1:04pm

Sat Oct 16, 12:04pm

Sat Oct 16, 11:04am

Sat Oct 16, 10:04am

Sat Oct 16, 9:04am

Sat Oct 16, 8:04am

Sat Oct 16, 7:04am

Sat Oct 16, 6:04am

Sat Oct 16, 5:04am

Sat Oct 16, 4:04am

Sat Oct 16, 3:04am

Sat Oct 16, 2:04am

Sat Oct 16, 1:04am

Sat Oct 16, 12:04am

Fri Oct 15, 11:04pm

Fri Oct 15, 10:04pm

Fri Oct 15, 9:04pm

Fri Oct 15, 8:04pm

Fri Oct 15, 7:04pm

Fri Oct 15, 6:04pm

Fri Oct 15, 5:04pm

Fri Oct 15, 4:04pm

Fri Oct 15, 3:04pm

Fri Oct 15, 2:05pm

Fri Oct 15, 1:05pm

Fri Oct 15, 12:04pm

Fri Oct 15, 11:05am

Fri Oct 15, 10:04am

Fri Oct 15, 9:04am

Fri Oct 15, 8:04am

Fri Oct 15, 7:04am

Fri Oct 15, 6:04am

Fri Oct 15, 5:04am

Fri Oct 15, 4:04am

Fri Oct 15, 3:05am

Fri Oct 15, 2:04am

Fri Oct 15, 1:04am

Fri Oct 15, 12:04am

Thu Oct 14, 11:04pm

Thu Oct 14, 10:04pm

Thu Oct 14, 9:04pm

Thu Oct 14, 8:04pm

Thu Oct 14, 7:04pm

Thu Oct 14, 6:04pm

Thu Oct 14, 5:04pm

Thu Oct 14, 4:04pm

Thu Oct 14, 3:04pm

Thu Oct 14, 2:04pm

Thu Oct 14, 1:04pm

Thu Oct 14, 12:04pm

Thu Oct 14, 10:04am

Thu Oct 14, 9:04am

Thu Oct 14, 8:04am

Thu Oct 14, 7:04am

Thu Oct 14, 6:04am

Thu Oct 14, 5:04am

Thu Oct 14, 4:04am

Thu Oct 14, 3:04am

Thu Oct 14, 2:04am

Thu Oct 14, 1:04am

Thu Oct 14, 12:04am

Wed Oct 13, 11:04pm

Wed Oct 13, 10:04pm

Wed Oct 13, 9:04pm

Wed Oct 13, 8:04pm

Wed Oct 13, 7:04pm

Wed Oct 13, 6:04pm

Wed Oct 13, 5:04pm

Wed Oct 13, 4:04pm

Wed Oct 13, 3:04pm

Wed Oct 13, 2:04pm

Wed Oct 13, 1:04pm

Wed Oct 13, 12:04pm

Wed Oct 13, 11:04am

Wed Oct 13, 10:04am

Wed Oct 13, 9:04am

Wed Oct 13, 8:04am

Wed Oct 13, 7:04am

Wed Oct 13, 6:04am

Wed Oct 13, 5:04am

Wed Oct 13, 4:04am

Wed Oct 13, 3:04am

Wed Oct 13, 2:04am

Wed Oct 13, 1:04am

Wed Oct 13, 12:04am

Tue Oct 12, 11:04pm

Tue Oct 12, 10:04pm

Tue Oct 12, 9:04pm

Tue Oct 12, 8:04pm

Tue Oct 12, 7:04pm

Tue Oct 12, 6:04pm

Tue Oct 12, 5:04pm

Tue Oct 12, 4:04pm

Tue Oct 12, 3:04pm

Tue Oct 12, 2:04pm

Tue Oct 12, 1:04pm

Tue Oct 12, 12:04pm

Tue Oct 12, 11:05am

Tue Oct 12, 10:04am

Tue Oct 12, 9:04am

Tue Oct 12, 8:04am

Tue Oct 12, 7:04am

Tue Oct 12, 6:04am

Tue Oct 12, 5:04am

Tue Oct 12, 4:04am

Tue Oct 12, 3:04am

Tue Oct 12, 2:04am

Tue Oct 12, 1:04am

Tue Oct 12, 12:04am

Mon Oct 11, 11:04pm

Mon Oct 11, 10:04pm

Mon Oct 11, 9:04pm

Mon Oct 11, 8:04pm

Mon Oct 11, 7:04pm

Mon Oct 11, 6:04pm

Mon Oct 11, 5:04pm

Mon Oct 11, 4:04pm

Mon Oct 11, 3:04pm

Mon Oct 11, 2:04pm

Mon Oct 11, 1:04pm

Mon Oct 11, 12:04pm

Mon Oct 11, 11:04am

Mon Oct 11, 10:04am

Mon Oct 11, 9:04am

Mon Oct 11, 8:04am

Mon Oct 11, 7:04am

Mon Oct 11, 6:04am

Mon Oct 11, 5:04am

Mon Oct 11, 4:04am

Mon Oct 11, 3:04am

Mon Oct 11, 2:04am

Mon Oct 11, 1:04am

Mon Oct 11, 12:05am

Sun Oct 10, 11:04pm

Sun Oct 10, 10:04pm

Meta data:

ID: a6c3d882-4a3c-4c81-b35d-f4fa9a5f6b67
Link: https://api.weather.gov/products/a6c3d882-4a3c-4c81-b35d-f4fa9a5f6b67